This demonstration page uses our WeatherBlox Daily Observations layout. Learn more.

41.55636, -103.73856

Hourly Observations for February 1, 2020

Temp ( °F °C ) Dew Point ( °F °C ) Humidity (%) Winds ( mph kmh ) Pressure ( in mb ) Visibility ( mi km ) Precip ( " mm )
12:58 am 00:58 Partly Cloudy 37 2.6 21 -6.3 52 52 WNW 13 20 30.19 1022 10 16.0934 0 0
1:58 am 01:58 Clear 35 1.7 21 -6.3 56 56 WNW 12 19 30.24 1024 10 16.0934 0 0
2:58 am 02:58 Mostly Cloudy 35 1.5 21 -6.2 57 57 WNW 12 19 30.26 1025 10 16.0934 0 0
3:58 am 03:58 Mostly Cloudy 34 1.1 22 -5.8 60 60 W 6 9 30.28 1025 10 16.0934 0 0
4:58 am 04:58 Mostly Cloudy 35 1.4 22 -5.7 60 60 WSW 12 19 30.26 1025 10 16.0934 0 0
5:58 am 05:58 Mostly Clear 36 2 23 -5.1 60 60 W 8 13 30.24 1024 10 16.0934 0 0
6:58 am 06:58 Clear 35 1.5 24 -4.7 64 64 W 12 19 30.25 1024 10 16.0934 0 0
7:58 am 07:58 Clear 36 2.1 24 -4.6 62 62 W 10 17 30.21 1023 10 16.0934 0 0
8:58 am 08:58 Clear 37 2.6 24 -4.2 61 61 W 14 22 30.17 1022 10 16.0934 0 0
9:58 am 09:58 Clear 35 1.4 25 -3.8 69 69 SW 14 22 30.11 1020 10 16.0934 0 0
10:58 am 10:58 Clear 37 2.9 25 -3.9 61 61 WSW 9 15 30.09 1019 10 16.0934 0 0
11:58 am 11:58 Mostly Cloudy 40 4.3 26 -3.3 58 58 W 17 28 30.09 1019 10 16.0934 0 0
12:58 pm 12:58 Mostly Cloudy 41 4.9 26 -3.2 56 56 W 9 15 30.08 1019 10 16.0934 0 0
1:58 pm 13:58 Partly Cloudy 43 6 26 -3.5 51 51 W 14 22 30.08 1019 10 16.0934 0 0
2:58 pm 14:58 Mostly Sunny 43 6.1 25 -3.7 50 50 WNW 21 33 30.06 1018 10 16.0934 0 0
3:58 pm 15:58 Sunny 46 7.6 24 -4.3 43 43 WNW 22 35 30.04 1017 10 16.0934 0 0
4:58 pm 16:58 Sunny 51 10.5 22 -5.3 33 33 NW 30 48 30.04 1017 10 16.0934 0 0
5:58 pm 17:58 Sunny 52 11.3 21 -6.2 29 29 WNW 30 48 30.05 1018 10 16.0934 0 0
6:58 pm 18:58 Sunny 53 11.9 20 -6.8 27 27 WNW 26 43 30.06 1018 10 16.0934 0 0
7:58 pm 19:58 Sunny 55 12.9 19 -7.3 24 24 W 26 43 30.01 1016 10 16.0934 0 0
8:58 pm 20:58 Sunny 55 12.9 19 -7 25 25 WNW 24 39 29.99 1016 10 16.0934 0 0
9:58 pm 21:58 Sunny 55 12.5 20 -6.9 25 25 W 16 26 30.02 1017 10 16.0934 0 0

Powered by AerisWeather